Hourly Data Report for July 31, 2021

NORTH CAPE
PRINCE EDWARD ISLAND
Current Station Operator: ECCC - MSC

47°03'29.000" N
63°59'55.000" W
7.60 m
8300516
71987
WNE

Download Data

Hourly Data (July 2021)
Hourly Data Report for July 31, 2021
TIME
LST
Temp Definition
°C
Dew Point Definition
°C
Rel Hum Definition
%
Precip. Amount Definition
mm

Wind Dir Definition
10's deg

Wind Spd Definition
km/h
Visibility Definition
km
Stn Press Definition
kPa
Hmdx Definition


Wind Chill Definition


Weather Definition


00:00 16.3 14.5 89 0.0 28 17   99.84     LegendNANA
01:00 16.6 15.0 90 0.2 27 24   99.79     LegendNANA
02:00 15.9 15.2 95 0.6 30 11   99.77     LegendNANA
03:00 16.8 14.8 88 0.0 29 32   99.77     LegendNANA
04:00 16.6 14.4 87 0.0 28 39   99.77     LegendNANA
05:00 15.8 13.8 88 0.0 26 39   99.81     LegendNANA
06:00 15.2 13.3 88 0.0 26 41   99.85     LegendNANA
07:00 15.2 12.9 87 0.0 26 40   99.84     LegendNANA
08:00 15.3 12.9 86 0.0 26 43   99.85     LegendNANA
09:00 16.2 13.3 83 0.0 26 47   99.86     LegendNANA
10:00 16.7 13.2 80 0.0 27 47   99.91     LegendNANA
11:00 16.8 14.1 84 0.0 27 44   99.95     LegendNANA
12:00 17.3 13.4 78 0.7 27 45   99.98     LegendNANA
13:00 16.2 14.3 88 0.0 29 35   100.03     LegendNANA
14:00 17.8 13.7 77 0.8 28 31   100.09     LegendNANA
15:00 18.4 14.3 77 0.0 26 30   100.13     LegendNANA
16:00 19.0 13.8 72 0.0 27 34   100.19     LegendNANA
17:00 18.6 14.8 78 0.0 27 34   100.29     LegendNANA
18:00 18.3 14.1 76 0.0 27 35   100.39     LegendNANA
19:00 18.1 14.0 77 0.0 26 28   100.45     LegendNANA
20:00 18.2 14.6 80 0.0 27 17   100.53     LegendNANA
21:00 17.7 14.6 82 0.6 25 16   100.58     LegendNANA
22:00 16.7 15.4 92 0.0 22 14   100.60     LegendNANA
23:00 18.5 14.2 76 0.0 26 25   100.62     LegendNANA

Notes on Data Quality.

Legend

  • E = Estimated
  • M = Missing
  • NA = Not Available*
  • [empty] = Indicates an unobserved value
Date modified: